This is the latest recevied weather packets stored in our database for station/object K2RMB. If no packets are shown the sender has not sent any weather packets the latest 10 day(s).
| Time | Temp. | Humidity | Pressure | Rain* | Wind** | Luminosity | Snow |
|---|---|---|---|---|---|---|---|
| 1777761405 | 8.89° C | 42% | 1011.8 hPa | 0 mm | - | 43 W/m² | - |
| 1777761103 | 8.89° C | 41% | 1011.8 hPa | 0 mm | - | 49 W/m² | - |
| 1777760800 | 8.89° C | 41% | 1011.8 hPa | 0 mm | - | 53 W/m² | - |
| 1777760496 | 9.44° C | 41% | 1011.8 hPa | 0 mm | - | 81 W/m² | - |
| 1777760192 | 10° C | 41% | 1011.8 hPa | 0 mm | - | 96 W/m² | - |
| 1777759889 | 9.44° C | 42% | 1011.8 hPa | 0 mm | - | 124 W/m² | - |
| 1777759586 | 9.44° C | 41% | 1011.8 hPa | 0 mm | - | 158 W/m² | - |
| 1777759282 | 9.44° C | 41% | 1011.8 hPa | 0 mm | - | 187 W/m² | - |
| 1777758979 | 9.44° C | 42% | 1011.8 hPa | 0 mm | - | 200 W/m² | - |
| 1777758676 | 9.44° C | 42% | 1011.8 hPa | 0 mm | - | 217 W/m² | - |
| 1777758373 | 10.56° C | 42% | 1011.8 hPa | 0 mm | - | 228 W/m² | - |
| 1777758070 | 10.56° C | 40% | 1011.8 hPa | 0 mm | - | 243 W/m² | - |
| 1777757768 | 10.56° C | 42% | 1011.8 hPa | 0 mm | - | 260 W/m² | - |
| 1777757465 | 10.56° C | 39% | 1011.5 hPa | 0 mm | - | 276 W/m² | - |
| 1777757164 | 10.56° C | 42% | 1011.5 hPa | 0 mm | - | 292 W/m² | - |
| 1777756861 | 10.56° C | 41% | 1011.5 hPa | 0 mm | - | 306 W/m² | - |
| 1777756556 | 10.56° C | 42% | 1011.5 hPa | 0 mm | - | 324 W/m² | - |
| 1777756254 | 10° C | 43% | 1011.5 hPa | 0 mm | - | 339 W/m² | - |
| 1777755950 | 10.56° C | 42% | 1011.5 hPa | 0 mm | - | 354 W/m² | - |
| 1777755648 | 10° C | 43% | 1011.8 hPa | 0 mm | - | 373 W/m² | - |
| 1777755344 | 10° C | 42% | 1011.5 hPa | 0 mm | - | 393 W/m² | - |
| 1777755042 | 10.56° C | 43% | 1011.5 hPa | 0 mm | - | 432 W/m² | - |
| 1777754738 | 10.56° C | 43% | 1011.5 hPa | 0 mm | - | 445 W/m² | - |
| 1777754436 | 10.56° C | 42% | 1011.5 hPa | 0 mm | - | 454 W/m² | - |
| 1777754132 | 10.56° C | 41% | 1011.5 hPa | 0 mm | - | 458 W/m² | - |
* Rain latest hour (hover to see other rain measurements)
** Current wind speed in m/s (hover to see current wind gust speed)